Погода в Воскресеновке

Россия / Еврейская автономная область     48°02′35″N   132°52′52″E
темп.,
°C
ветер,
м/с
пор.,
м/с
влажн.,
%
обл.,
%
осадки,
мм/ч
давл.,
гПа
погр.,
м
9 марта, вт
вт901:00−8ю389594 0.0 1017196
04:00−7ю3119197 0.0 1013298
07:00−8ю4139114 0.0 1010326
10:00−2юз6137537 0.0 1008723
13:00−1зюз61075100 0.0 1007798
16:000з597998 0.1 10071023
19:00−5з5147774 0.2 1009685
22:00−6зсз5177454 0.2 1012648
10 марта, ср
ср1001:00−6зсз617700 0.0 1015643
04:00−8зсз312800 0.0 1019321
07:00−11з23890 0.0 102331
10:00−7зюз22730 0.0 1025177
13:00−2зюз246231 0.0 1024412
16:00−2зюз366662 0.0 1022452
19:00−5ююз388499 0.0 1021198
22:00−5ююз4117983 0.0 1021287
11 марта, чт
чт1101:00−8юз368864 0.0 1020108
04:00−9зюз239151 0.0 102055
07:00−8з35900 0.0 1022110
10:00−4з39710 0.0 1024405
13:00−1зсз48550 0.0 1025636
16:000зсз58530 0.0 1026985
19:00−4з48640 0.0 1026177
22:00−8з22780 0.0 102722
12 марта, пт
пт1201:00−9зюз12790 0.0 102821
04:00−10зюз22760 0.0 102921
07:00−11зюз11660 0.0 103021
10:00−5зюз12530 0.0 1031152
13:00−1зюз35590 0.0 1031381
16:000юз37710 0.0 1029477
19:00−3юз35900 0.0 102794
22:00−5юз36880 0.0 1028120
13 марта, сб
сб1301:00−5юз36880 0.0 1027126
04:00−6юз36890 0.0 1026110
07:00−7юз35890 0.0 102699
10:00−2юз47730 0.0 1025264
13:00+2юз48700 0.0 1023402
16:00+3юз38690 0.0 1021446
19:00−1ююз23860 0.0 102039
22:00−2ююз33900 0.0 102052